{"data":{"norad_id":51882,"intl_designator":"2022-022AG","name":"STARLINK-3570","alt_names":[],"object_type":"PAYLOAD","status":"ACTIVE","operator":null,"country":"US","launch_date":"2022-03-03","launch_site_code":"AFETR","launch_vehicle":null,"mission":null,"orbit_class":"UNKNOWN","rcs_meters":null,"size_class":null,"mass_kg":null,"dimensions":null,"purposes":["comms"],"wikipedia_slug":null,"has_3d_model":false,"image_url":null,"decayed_at":null,"tle_current":{"epoch":"2026-05-25T00:40:09.149952Z","epoch_age_seconds":73454,"freshness":"FRESH","line1":"1 51882U 22022AG  26145.02788368 -.00000561  00000+0 -17159-4 0  9992","line2":"2 51882  53.2133  16.4344 0001398 105.1124 255.0023 15.08846774234826","mean_motion":15.08846774,"eccentricity":0.0001398,"inclination_deg":53.2133,"raan_deg":16.4344,"arg_perigee_deg":105.1124,"mean_anomaly_deg":255.0023,"bstar":-1.7159e-5,"rev_number":23482,"period_min":95.437126208814,"perigee_km":538.75556684978,"apogee_km":540.68980041732,"semimajor_km":6917.8596836335,"source":"CELESTRAK","updated_at":"2026-05-25T13:38:16.986448Z"}}}